Regional Weather Roundup
Issued by NWS Little Rock, AR

Home | Current Version | Previous Version | Text Only | Print | Product List | Glossary On
Versions: 1 2 3 4 5 6 7 8 9 10 11 12 13 14 15 16 17 18 19 20 21 22 23 24 25 26 27
000
ASUS44 KLZK 010405
RWRLZK

WEATHER ROUNDUP FOR ARKANSAS
NATIONAL WEATHER SERVICE LITTLE ROCK AR
1100 PM CDT TUE MAY 31 2016

NOTE: "FAIR" INDICATES FEW OR NO CLOUDS BELOW 12,000 FEET WITH NO
SIGNIFICANT WEATHER AND/OR OBSTRUCTIONS TO VISIBILITY.

ARZ001-003-010-029-010500-
NORTHWEST ARKANSAS

CITY           SKY/WX    TMP DP  RH WIND       PRES   REMARKS
FAYETTEVILLE   CLOUDY    65  65 100 CALM      29.98R
FORT SMITH     CLOUDY    71  68  90 CALM      29.94R
HARRISON       MOCLDY    68  66  93 CALM      29.98R
BENTONVILLE    CLOUDY    68  64  88 CALM      29.99R
ROGERS           N/A     68  67  96 CALM      29.99R
SILOAM SPGS    CLOUDY    66  59  77 CALM      29.98R
$$

ARZ004-005-016-010500-
NORTH CENTRAL ARKANSAS

CITY           SKY/WX    TMP DP  RH WIND       PRES   REMARKS
BATESVILLE     CLEAR     72  70  94 CALM      29.94R
FLIPPIN        CLOUDY   N/A N/A N/A CALM      29.92R
MTN HOME       CLOUDY    71  68  90 SE3       29.93R
$$

ARZ040-041-010500-
WEST CENTRAL ARKANSAS

CITY           SKY/WX    TMP DP  RH WIND       PRES   REMARKS
MENA           CLOUDY    68  66  94 CALM      29.96S
MOUNT IDA      MOCLDY    70  67  90 CALM      29.94R
$$

ARZ009-017-025-026-028-010500-
NORTHEAST ARKANSAS

CITY           SKY/WX    TMP DP  RH WIND       PRES   REMARKS
CORNING          N/A     75  73  94 SE3       29.93S
JONESBORO      CLOUDY    73  70  90 CALM      29.92S
NEWPORT        CLEAR     76  74  93 CALM      29.93R
WALNUT RIDGE   CLOUDY    75  66  73 NE3       29.93R
BLYTHEVILLE    CLEAR     75  69  81 CALM      29.93S
$$

ARZ022-023-033-042-044-010500-
CENTRAL ARKANSAS

CITY           SKY/WX    TMP DP  RH WIND       PRES   REMARKS
LITTLE ROCK    PTCLDY    75  70  84 CALM      29.93R
N LITTLE ROCK    N/A     73  70  91 CALM      29.92R
JACKSONVILLE   PTCLDY    72  72  99 CALM      29.92R
SEARCY         CLEAR     71  71 100 CALM      29.95R
HOT SPRINGS    CLOUDY    72  66  81 SW7       29.95R
RUSSELLVILLE   CLOUDY    71  70  96 CALM      29.93R
CLINTON        FAIR      72  70  94 CALM      29.96R
$$

ARZ036-010500-
EAST ARKANSAS

CITY           SKY/WX    TMP DP  RH WIND       PRES   REMARKS
WEST MEMPHIS   PTCLDY    74  71  91 CALM      29.91S
$$

ARZ050-053-066-070-073-010500-
SOUTHWEST ARKANSAS

CITY           SKY/WX    TMP DP  RH WIND       PRES   REMARKS
ARKADELPHIA    FAIR      70  67  90 CALM      29.95R
CAMDEN         CLOUDY    72  64  78 CALM      29.94R
TEXARKANA      CLOUDY    69  66  90 S5        29.91R
EL DORADO      CLOUDY    72  68  87 CALM      29.93R
DE QUEEN       CLOUDY    68  66  93 VRB3      29.91R
$$

ARZ056-057-069-010500-
SOUTHEAST ARKANSAS

CITY           SKY/WX    TMP DP  RH WIND       PRES   REMARKS
PINE BLUFF     MOCLDY    74  72  93 CALM      29.92R
STUTTGART      PTCLDY    77  72  83 NE3       29.93R
MONTICELLO     PTCLDY    76  73  91 CALM      29.92R

$$






USA.gov is the U.S. government's official web portal to all federal, state and local government web resources and services.